Simultaneous Nadir Overpasses (SNOs) Predictions

Prediction of SNOs between METOP-B and TERRA Satellite Orbit:

Table of predicted SNOs for the next 14.0 days since TLE Epoch: 3/15/2014
Index Date (METOP-B) Time (METOP-B) Lat,Lon (METOP-B) SZA (METOP-B ) Date (TERRA) Time (TERRA) Lat,Lon (TERRA) SZA (TERRA ) Distance(km) Time Diff (sec)
1 03/16/2014 16:32:55 81.31, -20.79 85.44 03/16/2014 16:33:52 81.32, -20.82 85.47 0.79 57
2 03/16/2014 17:23:35 -81.31, 146.76 94.55 03/16/2014 17:23:19 -81.31, 146.71 94.57 0.98 16
3 03/19/2014 12:07:18 81.31, 45.50 84.35 03/19/2014 12:08:05 81.32, 45.64 84.39 2.47 47
4 03/19/2014 12:57:58 -81.31,-146.88 95.64 03/19/2014 12:57:32 -81.31,-146.79 95.64 1.50 26
5 03/22/2014 07:41:41 81.31, 111.71 83.24 03/22/2014 07:42:20 81.30, 111.81 83.26 1.68 39
6 03/
